Location: Abraham Lincoln Continuation High School
(33.9711°N, 117.3662°W)
Time: 05:04:31
(UTC+00:00)

ATLAS 2AS CENTAUR R/B - Pass Details

Date: 21 September 2020
Orbit: 939 x 1273 km, 63.7° (Epoch: 19 October)

Event Time Altitude Azimuth Distance (km) Brightness Sun altitude
Rises 04:26:49 0° 221° (SW) 4,153 5.9 -32.7°
Reaches altitude 10° 04:29:37 10° 225° (SW) 3,216 5.3 -33.2°
Maximum altitude 04:37:21 60° 304° (NW) 1,435 3.4 -34.6°
Drops below altitude 10° 04:45:12 10° 23° (NNE) 3,251 5.3 -36.0°
Sets 04:48:03 0° 28° (NNE) 4,201 5.8 -36.5°
